Regional Weather Roundup
Issued by NWS

Home | Current Version | Previous Version | Text Only | Print | Product List | Glossary On
Versions: 1 2 3 4 5 6 7 8 9 10 11 12 13 14 15 16 17 18 19 20 21 22 23 24 25 26 27 28 29 30 31 32 33 34 35 36 37 38 39 40 41 42 43 44 45 46 47 48 49 50
419
ASHW40 PHFO 110112
RWRHI

WEATHER ROUNDUP FOR HAWAII
NATIONAL WEATHER SERVICE HONOLULU HI
300 PM HST SUN DEC 10 2017

THIS IS AN AUTOMATED REPORT THAT HAS NOT BEEN QUALITY CONTROLLED.

NOTE..."FAIR" INDICATES FEW OR NO CLOUDS BELOW 12,000 FEET WITH NO
SIGNIFICANT WEATHER AND/OR OBSTRUCTIONS TO VISIBILITY.

* - THESE SITES REPORT LIMITED FIELDS
# - BUOY DATA PROVIDED BY PACIFIC ISLANDS OCEAN OBSERVING SYSTEM.

HIZ001>004-110200-
KAUAI-NIIHAU-

CITY           SKY/WX    TMP DP  RH WIND       PRES   REMARKS
LIHUE APT      SUNNY     73  63  70 NE7       29.97F
PORT ALLEN*      N/A     77 N/A N/A SE16        N/A
POIPU*           N/A     79 N/A N/A E7G15       N/A
PRINCEVILLE*   NOT AVBL
KOKOLE POINT*  NOT AVBL
MOLOAA DAIRY*    N/A     75  63  64 E6G12       N/A
WAIMEA HTS*    NOT AVBL
PUU OPAE*      NOT AVBL
PUU LUA*       NOT AVBL
MAKAHA RIDGE*  NOT AVBL
$$

HIZ005>011-110200-
OAHU-

CITY           SKY/WX    TMP DP  RH WIND       PRES   REMARKS
HONOLULU       PTSUNNY   81  64  56 E9        29.93F
KALAELOA       PTSUNNY   79  67  66 SE5       29.94F
KANEOHE MCB    LGT RAIN  75  67  76 CALM      29.92F
WHEELER FIELD  PTSUNNY   75  64  69 E3        29.97S
BELLOWS*       NOT AVBL
KAHUKU*        NOT AVBL
WHEELER*       NOT AVBL
WAIANAE HARBOR NOT AVBL
DILLINGHAM*    NOT AVBL
KAHUKU TRN*      N/A    N/A N/A N/A W6G14       N/A
KAWAILOA*        N/A     73  64  73 E8G15       N/A
KII*             N/A     75  66  73 E9          N/A
MAKUA RANGE*     N/A     81  64  57 E5G12       N/A
OAHU FOREST NW NOT AVBL
SCHOFIELD BRK*   N/A     75  64  69 MISG        N/A
SCHOFIELD S*   NOT AVBL
WAIANAE VLY*   NOT AVBL
KUAOKALA*      NOT AVBL
HONOULIUULI*   NOT AVBL
MOKUOLOE IS*   NOT AVBL
PALEHUA*       NOT AVBL
WAIAWA PHB*    NOT AVBL
$$

HIZ012>013-110200-
MOLOKAI-

CITY           SKY/WX    TMP DP  RH WIND       PRES   REMARKS
MOLOKAI AIRPT  LGT RAIN  71  69  93 NE6       29.95F FOG
KALAUPAPA      NOT AVBL
MAKAPULAPAI*   NOT AVBL
MOLOKAI 1*     NOT AVBL
PUU ALII*      NOT AVBL
$$

HIZ016-110200-
KAHOOLAWE-

CITY           SKY/WX    TMP DP  RH WIND       PRES   REMARKS
KAHOOLAWE*     NOT AVBL
HAKIOAWA*      NOT AVBL
HONOKANAIA*    NOT AVBL
KANELOA*         N/A     73  66  78 E13G20    30.01F
KEALIALALO*    NOT AVBL
LUA MAKIKA*    NOT AVBL
$$

HIZ014>015-110200-
LANAI-

CITY           SKY/WX    TMP DP  RH WIND       PRES   REMARKS
LANAI CITY     CLOUDY    74  65  73 S7        29.99F
LANAI 1*       NOT AVBL
$$

HIZ017>028-110200-
MAUI-

CITY           SKY/WX    TMP DP  RH WIND       PRES   REMARKS
KAHULUI        PTSUNNY   79  70  74 NE13      29.92F
KAPALUA-W MAUI PTSUNNY   73  70  88 VRB6      29.95
HANA AIRPORT   MOSUNNY   73  73 100 CALM      29.97F
HANA*            N/A     73 N/A N/A E5          N/A
HALEAKALA SUMM   N/A     54  12  19 N9          N/A
MAALAEA BAY*   NOT AVBL
HALEAKALA*     NOT AVBL
KAUPO GAP*     NOT AVBL
KULA 1*          N/A     59  54  84 NW5         N/A
$$

HIZ023>026-110200-
BIG ISLAND OF HAWAII COAST AND LOWER SLOPES-

CITY           SKY/WX    TMP DP  RH WIND       PRES   REMARKS
KAILUA KONA    MOSUNNY   79  64  60 SW12      29.91F
HILO           MOSUNNY   79  63  57 E5        29.94F
HONOKAA*         N/A     73 N/A N/A VRB1        N/A
KAWAIHAE MWT*    N/A     79 N/A N/A W7          N/A
KAWAIHAE*      NOT AVBL
SOUTH POINT*     N/A     73 N/A N/A N14G21      N/A
UPOLU AIRPORT* NOT AVBL
KAMUELA*       CLEAR     73  61  64 NE10      30.02S
HAKALAU*         N/A     60  54  79 SE5         N/A
KALOKO-HONOKO* NOT AVBL
PALI 2*          N/A     64  59  82 NW10G20     N/A
KEALAKOMO*       N/A     81  66  61 E18G24      N/A
KAUPULEHU*     NOT AVBL
KAPAPALA*        N/A     73  62  68 SE5G10      N/A
LOWER KAHUKU*  NOT AVBL
PUHE CS*       NOT AVBL
PUHO CS*       NOT AVBL
PTA KEAMUKU*     N/A     70  57  64 N6G16       N/A
WAIKOLOA*      NOT AVBL
$$

HIZ027>028-110200-
BIG ISLAND OF HAWAII INTERIOR AND SUMMMITS-

CITY           SKY/WX    TMP DP  RH WIND       PRES   REMARKS
BRADSHAW FIELD MOSUNNY   64  51  63 W6        30.22F
MK VISITOR CEN   N/A     52  45  76 SW6         N/A
MAUNA KEA*       N/A     43  28  56 NE2         N/A
MAUNA LOA*       N/A     48  34  57 MISG        N/A
MAUNA LOA 1*   NOT AVBL
PTA KIPUKA*      N/A     66  52  59 S5G15       N/A
PTA RANGE 17*    N/A     63  52  67 E6G17       N/A
PTA WEST*        N/A     70  57  64 NW7G15      N/A
NENE CABIN*    NOT AVBL
AHUMOA*        NOT AVBL
PTA PORTABLE*  NOT AVBL
PUU MALI*        N/A     57  54  88 NE8         N/A
$$

HIC003-110200-
NORTHWEST ISLANDS-

CITY           SKY/WX    TMP DP  RH WIND       PRES   REMARKS
MIDWAY ISLAND  CLOUDY    68  64  88 N13       29.99F
MIDWAY NOS*    NOT AVBL
FRENCH FRIGATE NOT AVBL
$$

PHZ110>124-180-110200-
BUOY REPORTS

STATION/POSITION TIME  TEMP    WIND        PRES    WAVE   SWELL
                       AIR SEA DIR/SP/G            HT/PER HT/DIR
                 (UTC) (F)     (DEG/KT/KT) (MB)    (FT/S) (FT/D)
BUOY 51001       0050   71 76  140/  8/ 12 1014.7F  12/13  11
BUOY 51101       0050   71 75  120/  8/ 12 1015.2F  11/14  11/330
BUOY 51100       NOT AVBL
BUOY 51002       0050   77 79   70/ 14/ 16 1012.9F   6/15   5/ 10
BUOY 51003       0050   76 78   60/  8/ 12 1013.4F   8/14   7/340
BUOY 51004       0050   76 79   60/ 12/ 14 1013.0F   6/16   7/ 10
WAIMEA BAY#      NOT AVBL
MOKAPU POINT#    0034      77                N/A    10/13   8/350
LANAI#           NOT AVBL
BARBERS PT 2#    NOT AVBL
PAUWELA#         0100      78                N/A    12/15  10/340
HILO#            0057      78                N/A    11/15  10/350
KANEOHE BAY#     NOT AVBL
KANEOHE BAY 2#   NOT AVBL
HANALEI#         0052      77                N/A    13/14  10/340
KAHULUI HARBOR   0048          340/ 12/ 14 1013.7F
HONOLULU HARBOR  0048           70/  4/  7 1014.4F
PEARL HARBOR#    0000      78                N/A     2/12   2/170
KILO NALU        NOT AVBL
HILO HARBOR      0048           40/  7/ 11 1013.5F
MOKUOLOE         0036   75 76   90/  3/  5 1014.4F
NAWILIWILI       0048           70/  6/  9 1014.8F
WHOTS BUOY       NOT AVBL
BUOY 51028       NOT AVBL
$$

......................KEY........................................
  SKY/WX - SKY CONDITIONS/PRESENT WEATHER
  TMP    - TEMPERATURE IN FAHRENHEIT
  DWPT   - DEWPOINT IN FAHRENHEIT
  RH     - RELATIVE HUMIDITY IN PERCENT
  WIND   - DIRECTION AND SPEED /MPH FOR ISLANDS...KTS FOR BUOYS/
  PRES   - MEAN SEA LEVEL PRESSURE IN INCHES OF HG
  VSB    - VISIBILITY IN MILES
  HX     - HEAT INDEX
  WCI    - WIND CHILL INDEX
  VRB    - VARIABLE WIND DIRECTION
  N/A    - NOT AVAILABLE




USA.gov is the U.S. government's official web portal to all federal, state and local government web resources and services.